This is the latest recevied weather packets stored in our database for station/object KA3BQE-13. If no packets are shown the sender has not sent any weather packets the latest 10 day(s).
| Time | Temp. | Humidity | Pressure | Rain* | Wind** | Luminosity | Snow |
|---|---|---|---|---|---|---|---|
| 1777802403 | 6.67° C | 74% | 1018.2 hPa | 0 mm | - | 0 W/m² | - |
| 1777802101 | 6.67° C | 74% | 1018.2 hPa | 0 mm | - | 0 W/m² | - |
| 1777801799 | 6.67° C | 73% | 1018.4 hPa | 0 mm | - | 0 W/m² | - |
| 1777801495 | 6.67° C | 74% | 1018.3 hPa | 0 mm | - | 0 W/m² | - |
| 1777801192 | 6.67° C | 73% | 1018.4 hPa | 0 mm | - | 0 W/m² | - |
| 1777800889 | 6.67° C | 74% | 1018.4 hPa | 0 mm | - | 0 W/m² | - |
| 1777800584 | 6.11° C | 75% | 1018.4 hPa | 0 mm | - | 0 W/m² | - |
| 1777800281 | 6.11° C | 75% | 1018.3 hPa | 0 mm | - | 0 W/m² | - |
| 1777799977 | 6.11° C | 75% | 1018.5 hPa | 0 mm | - | 0 W/m² | - |
| 1777799673 | 5.56° C | 75% | 1018.4 hPa | 0 mm | - | 0 W/m² | - |
| 1777799370 | 5.56° C | 75% | 1018.6 hPa | 0 mm | - | 0 W/m² | - |
| 1777799060 | 5.56° C | 76% | 1018.4 hPa | 0 mm | - | 0 W/m² | - |
| 1777798756 | 5° C | 77% | 1018.5 hPa | 0 mm | - | 0 W/m² | - |
| 1777798453 | 4.44° C | 78% | 1018.5 hPa | 0 mm | - | 0 W/m² | - |
| 1777798149 | 4.44° C | 78% | 1018.4 hPa | 0 mm | - | 0 W/m² | - |
| 1777797847 | 3.89° C | 81% | 1018.5 hPa | 0 mm | - | 0 W/m² | - |
| 1777797545 | 3.89° C | 80% | 1018.5 hPa | 0 mm | - | 0 W/m² | - |
| 1777797242 | 3.89° C | 80% | 1018.5 hPa | 0 mm | - | 0 W/m² | - |
| 1777796938 | 3.89° C | 80% | 1018.3 hPa | 0 mm | - | 0 W/m² | - |
| 1777796635 | 3.89° C | 79% | 1018.4 hPa | 0 mm | - | 0 W/m² | - |
| 1777796331 | 4.44° C | 79% | 1018.5 hPa | 0 mm | - | 0 W/m² | - |
| 1777796027 | 4.44° C | 78% | 1018.4 hPa | 0 mm | - | 0 W/m² | - |
| 1777795724 | 4.44° C | 76% | 1018.5 hPa | 0 mm | - | 0 W/m² | - |
| 1777795421 | 5° C | 75% | 1018.6 hPa | 0 mm | - | 0 W/m² | - |
| 1777795117 | 4.44° C | 78% | 1018.6 hPa | 0 mm | - | 0 W/m² | - |
* Rain latest hour (hover to see other rain measurements)
** Current wind speed in m/s (hover to see current wind gust speed)